Year,Month,Day,Hour,Minute,Value (Times are PST for temperature in C)
2021,04,18,00,00,17.30
2021,04,18,00,01,17.30
2021,04,18,00,02,17.30
2021,04,18,00,03,17.20
2021,04,18,00,04,17.20
2021,04,18,00,05,17.20
2021,04,18,00,06,17.20
2021,04,18,00,07,17.20
2021,04,18,00,08,17.20
2021,04,18,00,09,17.10
2021,04,18,00,10,17.00
2021,04,18,00,11,16.90
2021,04,18,00,12,16.90
2021,04,18,00,13,16.80
2021,04,18,00,14,16.70
2021,04,18,00,15,16.60
2021,04,18,00,16,16.50
2021,04,18,00,17,16.50
2021,04,18,00,18,16.40
2021,04,18,00,19,16.40
2021,04,18,00,20,16.30
2021,04,18,00,21,16.20
2021,04,18,00,22,16.10
2021,04,18,00,23,16.00
2021,04,18,00,24,15.90
2021,04,18,00,25,15.80
2021,04,18,00,26,15.70
2021,04,18,00,27,15.70
2021,04,18,00,28,15.60
2021,04,18,00,29,15.50
2021,04,18,00,30,15.50
2021,04,18,00,31,15.40
2021,04,18,00,32,15.40
2021,04,18,00,33,15.30
2021,04,18,00,34,15.30
2021,04,18,00,35,15.20
2021,04,18,00,36,15.20
2021,04,18,00,37,15.10
2021,04,18,00,38,15.00
2021,04,18,00,39,15.00
2021,04,18,00,40,14.90
2021,04,18,00,41,14.80
2021,04,18,00,42,14.80
2021,04,18,00,43,14.70
2021,04,18,00,44,14.70
2021,04,18,00,45,14.70
2021,04,18,00,46,14.60
2021,04,18,00,47,14.60
2021,04,18,00,48,14.60
2021,04,18,00,49,14.60
2021,04,18,00,50,14.60
2021,04,18,00,51,14.60
2021,04,18,00,52,14.60
2021,04,18,00,53,14.60
2021,04,18,00,54,14.60
2021,04,18,00,55,14.60
2021,04,18,00,56,14.60
2021,04,18,00,57,14.60
2021,04,18,00,58,14.60
2021,04,18,00,59,14.60
2021,04,18,01,00,14.70
2021,04,18,01,01,14.70
2021,04,18,01,02,14.70
2021,04,18,01,03,14.70
2021,04,18,01,04,14.70
2021,04,18,01,05,14.80
2021,04,18,01,06,14.80
2021,04,18,01,07,14.80
2021,04,18,01,08,14.80
2021,04,18,01,09,14.90
2021,04,18,01,10,14.90
2021,04,18,01,11,14.90
2021,04,18,01,12,14.90
2021,04,18,01,13,15.00
2021,04,18,01,14,15.00
2021,04,18,01,15,15.00
2021,04,18,01,16,15.10
2021,04,18,01,17,15.10
2021,04,18,01,18,15.10
2021,04,18,01,19,15.10
2021,04,18,01,20,15.00
2021,04,18,01,21,15.00
2021,04,18,01,22,15.00
2021,04,18,01,23,15.00
2021,04,18,01,24,15.00
2021,04,18,01,25,14.90
2021,04,18,01,26,14.90
2021,04,18,01,27,14.90
2021,04,18,01,28,14.90
2021,04,18,01,29,14.90
2021,04,18,01,30,14.90
2021,04,18,01,31,14.80
2021,04,18,01,32,14.80
2021,04,18,01,33,14.80
2021,04,18,01,34,14.80
2021,04,18,01,35,14.80
2021,04,18,01,36,14.80
2021,04,18,01,37,14.80
2021,04,18,01,38,14.70
2021,04,18,01,39,14.70
2021,04,18,01,40,14.70
2021,04,18,01,41,14.70
2021,04,18,01,42,14.70
2021,04,18,01,43,14.70
2021,04,18,01,44,14.70
2021,04,18,01,45,14.60
2021,04,18,01,46,14.60
2021,04,18,01,47,14.60
2021,04,18,01,48,14.60
2021,04,18,01,49,14.60
2021,04,18,01,50,14.50
2021,04,18,01,51,14.50
2021,04,18,01,52,14.50
2021,04,18,01,53,14.50
2021,04,18,01,54,14.50
2021,04,18,01,55,14.40
2021,04,18,01,56,14.40
2021,04,18,01,57,14.40
2021,04,18,01,58,14.40
2021,04,18,01,59,14.40
2021,04,18,02,00,14.30
2021,04,18,02,01,14.30
2021,04,18,02,02,14.30
2021,04,18,02,03,14.30
2021,04,18,02,04,14.30
2021,04,18,02,05,14.20
2021,04,18,02,06,14.20
2021,04,18,02,07,14.20
2021,04,18,02,08,14.20
2021,04,18,02,09,14.10
2021,04,18,02,10,14.10
2021,04,18,02,11,14.10
2021,04,18,02,12,14.00
2021,04,18,02,13,14.00
2021,04,18,02,14,13.90
2021,04,18,02,15,13.90
2021,04,18,02,16,13.90
2021,04,18,02,17,13.80
2021,04,18,02,18,13.80
2021,04,18,02,19,13.80
2021,04,18,02,20,13.70
2021,04,18,02,21,13.70
2021,04,18,02,22,13.70
2021,04,18,02,23,13.60
2021,04,18,02,24,13.60
2021,04,18,02,25,13.60
2021,04,18,02,26,13.50
2021,04,18,02,27,13.50
2021,04,18,02,28,13.40
2021,04,18,02,29,13.40
2021,04,18,02,30,13.40
2021,04,18,02,31,13.30
2021,04,18,02,32,13.30
2021,04,18,02,33,13.20
2021,04,18,02,34,13.20
2021,04,18,02,35,13.20
2021,04,18,02,36,13.20
2021,04,18,02,37,13.10
2021,04,18,02,38,13.10
2021,04,18,02,39,13.00
2021,04,18,02,40,13.00
2021,04,18,02,41,12.90
2021,04,18,02,42,12.90
2021,04,18,02,43,12.80
2021,04,18,02,44,12.80
2021,04,18,02,45,12.70
2021,04,18,02,46,12.70
2021,04,18,02,47,12.60
2021,04,18,02,48,12.60
2021,04,18,02,49,12.60
2021,04,18,02,50,12.50
2021,04,18,02,51,12.50
2021,04,18,02,52,12.40
2021,04,18,02,53,12.40
2021,04,18,02,54,12.40
2021,04,18,02,55,12.40
2021,04,18,02,56,12.40
2021,04,18,02,57,12.30
2021,04,18,02,58,12.30
2021,04,18,02,59,12.30
2021,04,18,03,00,12.30
2021,04,18,03,01,12.30
2021,04,18,03,02,12.20
2021,04,18,03,03,12.20
2021,04,18,03,04,12.20
2021,04,18,03,05,12.20
2021,04,18,03,06,12.20
2021,04,18,03,07,12.30
2021,04,18,03,08,12.30
2021,04,18,03,09,12.30
2021,04,18,03,10,12.30
2021,04,18,03,11,12.30
2021,04,18,03,12,12.30
2021,04,18,03,13,12.30
2021,04,18,03,14,12.30
2021,04,18,03,15,12.30
2021,04,18,03,16,12.30
2021,04,18,03,17,12.30
2021,04,18,03,18,12.40
2021,04,18,03,19,12.40
2021,04,18,03,20,12.40
2021,04,18,03,21,12.50
2021,04,18,03,22,12.50
2021,04,18,03,23,12.60
2021,04,18,03,24,12.60
2021,04,18,03,25,12.60
2021,04,18,03,26,12.70
2021,04,18,03,27,12.70
2021,04,18,03,28,12.70
2021,04,18,03,29,12.70
2021,04,18,03,30,12.70
2021,04,18,03,31,12.70
2021,04,18,03,32,12.70
2021,04,18,03,33,12.80
2021,04,18,03,34,12.70
2021,04,18,03,35,12.70
2021,04,18,03,36,12.70
2021,04,18,03,37,12.70
2021,04,18,03,38,12.70
2021,04,18,03,39,12.70
2021,04,18,03,40,12.70
2021,04,18,03,41,12.70
2021,04,18,03,42,12.60
2021,04,18,03,43,12.60
2021,04,18,03,44,12.60
2021,04,18,03,45,12.60
2021,04,18,03,46,12.60
2021,04,18,03,47,12.50
2021,04,18,03,48,12.50
2021,04,18,03,49,12.50
2021,04,18,03,50,12.40
2021,04,18,03,51,12.40
2021,04,18,03,52,12.40
2021,04,18,03,53,12.40
2021,04,18,03,54,12.40
2021,04,18,03,55,12.40
2021,04,18,03,56,12.40
2021,04,18,03,57,12.40
2021,04,18,03,58,12.40
2021,04,18,03,59,12.30
2021,04,18,04,00,12.30
2021,04,18,04,01,12.30
2021,04,18,04,02,12.30
2021,04,18,04,03,12.30
2021,04,18,04,04,12.30
2021,04,18,04,05,12.30
2021,04,18,04,06,12.30
2021,04,18,04,07,12.20
2021,04,18,04,08,12.20
2021,04,18,04,09,12.20
2021,04,18,04,10,12.20
2021,04,18,04,11,12.20
2021,04,18,04,12,12.20
2021,04,18,04,13,12.20
2021,04,18,04,14,12.20
2021,04,18,04,15,12.20
2021,04,18,04,16,12.20
2021,04,18,04,17,12.10
2021,04,18,04,18,12.10
2021,04,18,04,19,12.10
2021,04,18,04,20,12.10
2021,04,18,04,21,12.10
2021,04,18,04,22,12.10
2021,04,18,04,23,12.10
2021,04,18,04,24,12.10
2021,04,18,04,25,12.10
2021,04,18,04,26,12.10
2021,04,18,04,27,12.10
2021,04,18,04,28,12.10
2021,04,18,04,29,12.10
2021,04,18,04,30,12.10
2021,04,18,04,31,12.10
2021,04,18,04,32,12.10
2021,04,18,04,33,12.10
2021,04,18,04,34,12.10
2021,04,18,04,35,12.10
2021,04,18,04,36,12.00
2021,04,18,04,37,12.00
2021,04,18,04,38,12.00
2021,04,18,04,39,12.00
2021,04,18,04,40,11.90
2021,04,18,04,41,11.90
2021,04,18,04,42,11.90
2021,04,18,04,43,11.90
2021,04,18,04,44,11.90
2021,04,18,04,45,11.90
2021,04,18,04,46,11.80
2021,04,18,04,47,11.80
2021,04,18,04,48,11.80
2021,04,18,04,49,11.80
2021,04,18,04,50,11.80
2021,04,18,04,51,11.80
2021,04,18,04,52,11.80
2021,04,18,04,53,11.70
2021,04,18,04,54,11.70
2021,04,18,04,55,11.70
2021,04,18,04,56,11.70
2021,04,18,04,57,11.70
2021,04,18,04,58,11.60
2021,04,18,04,59,11.60
2021,04,18,05,00,11.60
2021,04,18,05,01,11.60
2021,04,18,05,02,11.50
2021,04,18,05,03,11.50
2021,04,18,05,04,11.40
2021,04,18,05,05,11.40
2021,04,18,05,06,11.40
2021,04,18,05,07,11.40
2021,04,18,05,08,11.40
2021,04,18,05,09,11.30
2021,04,18,05,10,11.30
2021,04,18,05,11,11.30
2021,04,18,05,12,11.30
2021,04,18,05,13,11.30
2021,04,18,05,14,11.20
2021,04,18,05,15,11.20
2021,04,18,05,16,11.20
2021,04,18,05,17,11.20
2021,04,18,05,18,11.20
2021,04,18,05,19,11.10
2021,04,18,05,20,11.10
2021,04,18,05,21,11.10
2021,04,18,05,22,11.10
2021,04,18,05,23,11.00
2021,04,18,05,24,11.00
2021,04,18,05,25,11.00
2021,04,18,05,26,10.90
2021,04,18,05,27,10.90
2021,04,18,05,28,10.90
2021,04,18,05,29,10.90
2021,04,18,05,30,10.90
2021,04,18,05,31,10.80
2021,04,18,05,32,10.80
2021,04,18,05,33,10.80
2021,04,18,05,34,10.80
2021,04,18,05,35,10.80
2021,04,18,05,36,10.80
2021,04,18,05,37,10.80
2021,04,18,05,38,10.80
2021,04,18,05,39,10.70
2021,04,18,05,40,10.70
2021,04,18,05,41,10.70
2021,04,18,05,42,10.70
2021,04,18,05,43,10.70
2021,04,18,05,44,10.70
2021,04,18,05,45,10.70
2021,04,18,05,46,10.70
2021,04,18,05,47,10.70
2021,04,18,05,48,10.70
2021,04,18,05,49,10.70
2021,04,18,05,50,10.70
2021,04,18,05,51,10.70
2021,04,18,05,52,10.70
2021,04,18,05,53,10.70
2021,04,18,05,54,10.70
2021,04,18,05,55,10.70
2021,04,18,05,56,10.70
2021,04,18,05,57,10.70
2021,04,18,05,58,10.70
2021,04,18,05,59,10.70
2021,04,18,06,00,10.70
2021,04,18,06,01,10.70
2021,04,18,06,02,10.70
2021,04,18,06,03,10.70
2021,04,18,06,04,10.70
2021,04,18,06,05,10.70
2021,04,18,06,06,10.70
2021,04,18,06,07,10.70
2021,04,18,06,08,10.80
2021,04,18,06,09,10.80
2021,04,18,06,10,10.80
2021,04,18,06,11,10.80
2021,04,18,06,12,10.80
2021,04,18,06,13,10.80
2021,04,18,06,14,10.80
2021,04,18,06,15,10.80
2021,04,18,06,16,10.80
2021,04,18,06,17,10.90
2021,04,18,06,18,10.90
2021,04,18,06,19,10.90
2021,04,18,06,20,10.90
2021,04,18,06,21,10.90
2021,04,18,06,22,10.90
2021,04,18,06,23,10.90
2021,04,18,06,24,10.90
2021,04,18,06,25,10.90
2021,04,18,06,26,11.00
2021,04,18,06,27,11.00
2021,04,18,06,28,11.00
2021,04,18,06,29,11.00
2021,04,18,06,30,11.00
2021,04,18,06,31,11.00
2021,04,18,06,32,11.10
2021,04,18,06,33,11.10
2021,04,18,06,34,11.10
2021,04,18,06,35,11.10
2021,04,18,06,36,11.10
2021,04,18,06,37,11.20
2021,04,18,06,38,11.20
2021,04,18,06,39,11.20
2021,04,18,06,40,11.20
2021,04,18,06,41,11.30
2021,04,18,06,42,11.30
2021,04,18,06,43,11.30
2021,04,18,06,44,11.40
2021,04,18,06,45,11.40
2021,04,18,06,46,11.40
2021,04,18,06,47,11.50
2021,04,18,06,48,11.50
2021,04,18,06,49,11.60
2021,04,18,06,50,11.60
2021,04,18,06,51,11.60
2021,04,18,06,52,11.70
2021,04,18,06,53,11.70
2021,04,18,06,54,11.70
2021,04,18,06,55,11.80
2021,04,18,06,56,11.80
2021,04,18,06,57,11.80
2021,04,18,06,58,11.80
2021,04,18,06,59,11.90
2021,04,18,07,00,11.90
2021,04,18,07,01,11.90
2021,04,18,07,02,11.90
2021,04,18,07,03,12.00
2021,04,18,07,04,12.00
2021,04,18,07,05,12.00
2021,04,18,07,06,12.00
2021,04,18,07,07,12.00
2021,04,18,07,08,12.00
2021,04,18,07,09,12.00
2021,04,18,07,10,12.00
2021,04,18,07,11,11.90
2021,04,18,07,12,11.90
2021,04,18,07,13,11.90
2021,04,18,07,14,11.90
2021,04,18,07,15,11.90
2021,04,18,07,16,11.90
2021,04,18,07,17,11.90
2021,04,18,07,18,11.90
2021,04,18,07,19,11.90
2021,04,18,07,20,11.90
2021,04,18,07,21,11.90
2021,04,18,07,22,11.90
2021,04,18,07,23,11.90
2021,04,18,07,24,11.90
2021,04,18,07,25,11.90
2021,04,18,07,26,11.90
2021,04,18,07,27,11.90
2021,04,18,07,28,11.90
2021,04,18,07,29,11.90
2021,04,18,07,30,11.90
2021,04,18,07,31,11.90
2021,04,18,07,32,11.90
2021,04,18,07,33,11.90
2021,04,18,07,34,11.90
2021,04,18,07,35,11.90
2021,04,18,07,36,12.00
2021,04,18,07,37,12.00
2021,04,18,07,38,12.00
2021,04,18,07,39,12.00
2021,04,18,07,40,12.00
2021,04,18,07,41,12.10
2021,04,18,07,42,12.10
2021,04,18,07,43,12.10
2021,04,18,07,44,12.10
2021,04,18,07,45,12.20
2021,04,18,07,46,12.20
2021,04,18,07,47,12.20
2021,04,18,07,48,12.20
2021,04,18,07,49,12.20
2021,04,18,07,50,12.20
2021,04,18,07,51,12.20
2021,04,18,07,52,12.20
2021,04,18,07,53,12.20
2021,04,18,07,54,12.30
2021,04,18,07,55,12.30
2021,04,18,07,56,12.30
2021,04,18,07,57,12.30
2021,04,18,07,58,12.30
2021,04,18,07,59,12.30
2021,04,18,08,00,12.40
2021,04,18,08,01,12.40
2021,04,18,08,02,12.40
2021,04,18,08,03,12.50
2021,04,18,08,04,12.50
2021,04,18,08,05,12.50
2021,04,18,08,06,12.60
2021,04,18,08,07,12.60
2021,04,18,08,08,12.70
2021,04,18,08,09,12.70
2021,04,18,08,10,12.80
2021,04,18,08,11,12.80
2021,04,18,08,12,12.80
2021,04,18,08,13,12.90
2021,04,18,08,14,13.00
2021,04,18,08,15,13.00
2021,04,18,08,16,13.10
2021,04,18,08,17,13.10
2021,04,18,08,18,13.10
2021,04,18,08,19,13.20
2021,04,18,08,20,13.30
2021,04,18,08,21,13.30
2021,04,18,08,22,13.30
2021,04,18,08,23,13.40
2021,04,18,08,24,13.50
2021,04,18,08,25,13.50
2021,04,18,08,26,13.60
2021,04,18,08,27,13.60
2021,04,18,08,28,13.70
2021,04,18,08,29,13.70
2021,04,18,08,30,13.80
2021,04,18,08,31,13.80
2021,04,18,08,32,13.80
2021,04,18,08,33,13.90
2021,04,18,08,34,13.90
2021,04,18,08,35,14.00
2021,04,18,08,36,14.00
2021,04,18,08,37,14.10
2021,04,18,08,38,14.10
2021,04,18,08,39,14.10
2021,04,18,08,40,14.20
2021,04,18,08,41,14.20
2021,04,18,08,42,14.20
2021,04,18,08,43,14.20
2021,04,18,08,44,14.20
2021,04,18,08,45,14.20
2021,04,18,08,46,14.20
2021,04,18,08,47,14.20
2021,04,18,08,48,14.30
2021,04,18,08,49,14.30
2021,04,18,08,50,14.30
2021,04,18,08,51,14.30
2021,04,18,08,52,14.30
2021,04,18,08,53,14.30
2021,04,18,08,54,14.40
2021,04,18,08,55,14.40
2021,04,18,08,56,14.40
2021,04,18,08,57,14.40
2021,04,18,08,58,14.50
2021,04,18,08,59,14.50
2021,04,18,09,00,14.50
2021,04,18,09,01,14.60
2021,04,18,09,02,14.60
2021,04,18,09,03,14.60
2021,04,18,09,04,14.70
2021,04,18,09,05,14.70
2021,04,18,09,06,14.70
2021,04,18,09,07,14.80
2021,04,18,09,08,14.80
2021,04,18,09,09,14.80
2021,04,18,09,10,14.80
2021,04,18,09,11,14.90
2021,04,18,09,12,14.90
2021,04,18,09,13,14.90
2021,04,18,09,14,15.00
2021,04,18,09,15,15.00
2021,04,18,09,16,15.10
2021,04,18,09,17,15.10
2021,04,18,09,18,15.10
2021,04,18,09,19,15.20
2021,04,18,09,20,15.20
2021,04,18,09,21,15.20
2021,04,18,09,22,15.20
2021,04,18,09,23,15.30
2021,04,18,09,24,15.30
2021,04,18,09,25,15.30
2021,04,18,09,26,15.30
2021,04,18,09,27,15.30
2021,04,18,09,28,15.40
2021,04,18,09,29,15.40
2021,04,18,09,30,15.40
2021,04,18,09,31,15.50
2021,04,18,09,32,15.50
2021,04,18,09,33,15.60
2021,04,18,09,34,15.60
2021,04,18,09,35,15.60
2021,04,18,09,36,15.70
2021,04,18,09,37,15.70
2021,04,18,09,38,15.70
2021,04,18,09,39,15.70
2021,04,18,09,40,15.70
2021,04,18,09,41,15.70
2021,04,18,09,42,15.70
2021,04,18,09,43,15.70
2021,04,18,09,44,15.70
2021,04,18,09,45,15.70
2021,04,18,09,46,15.70
2021,04,18,09,47,15.70
2021,04,18,09,48,15.70
2021,04,18,09,49,15.70
2021,04,18,09,50,15.80
2021,04,18,09,51,15.80
2021,04,18,09,52,15.80
2021,04,18,09,53,15.90
2021,04,18,09,54,15.90
2021,04,18,09,55,15.90
2021,04,18,09,56,15.90
2021,04,18,09,57,15.90
2021,04,18,09,58,16.00
2021,04,18,09,59,16.00
2021,04,18,10,00,16.10
2021,04,18,10,01,16.10
2021,04,18,10,02,16.10
2021,04,18,10,03,16.20
2021,04,18,10,04,16.20
2021,04,18,10,05,16.20
2021,04,18,10,06,16.20
2021,04,18,10,07,16.30
2021,04,18,10,08,16.30
2021,04,18,10,09,16.30
2021,04,18,10,10,16.30
2021,04,18,10,11,16.30
2021,04,18,10,12,16.40
2021,04,18,10,13,16.40
2021,04,18,10,14,16.40
2021,04,18,10,15,16.40
2021,04,18,10,16,16.50
2021,04,18,10,17,16.50
2021,04,18,10,18,16.60
2021,04,18,10,19,16.60
2021,04,18,10,20,16.70
2021,04,18,10,21,16.80
2021,04,18,10,22,16.80
2021,04,18,10,23,16.80
2021,04,18,10,24,16.80
2021,04,18,10,25,16.90
2021,04,18,10,26,16.90
2021,04,18,10,27,17.00
2021,04,18,10,28,17.00
2021,04,18,10,29,17.10
2021,04,18,10,30,17.20
2021,04,18,10,31,17.30
2021,04,18,10,32,17.30
2021,04,18,10,33,17.40
2021,04,18,10,34,17.40
2021,04,18,10,35,17.50
2021,04,18,10,36,17.50
2021,04,18,10,37,17.60
2021,04,18,10,38,17.60
2021,04,18,10,39,17.60
2021,04,18,10,40,17.60
2021,04,18,10,41,17.60
2021,04,18,10,42,17.60
2021,04,18,10,43,17.70
2021,04,18,10,44,17.70
2021,04,18,10,45,17.80
2021,04,18,10,46,17.90
2021,04,18,10,47,18.00
2021,04,18,10,48,18.10
2021,04,18,10,49,18.10
2021,04,18,10,50,18.20
2021,04,18,10,51,18.20
2021,04,18,10,52,18.20
2021,04,18,10,53,18.30
2021,04,18,10,54,18.30
2021,04,18,10,55,18.30
2021,04,18,10,56,18.40
2021,04,18,10,57,18.40
2021,04,18,10,58,18.50
2021,04,18,10,59,18.60
2021,04,18,11,00,18.70
2021,04,18,11,01,18.70
2021,04,18,11,02,18.70
2021,04,18,11,03,18.70
2021,04,18,11,04,18.60
2021,04,18,11,05,18.60
2021,04,18,11,06,18.60
2021,04,18,11,07,18.70
2021,04,18,11,08,18.60
2021,04,18,11,09,18.60
2021,04,18,11,10,18.50
2021,04,18,11,11,18.50
2021,04,18,11,12,18.40
2021,04,18,11,13,18.30
2021,04,18,11,14,18.30
2021,04,18,11,15,18.30
2021,04,18,11,16,18.20
2021,04,18,11,17,18.20
2021,04,18,11,18,18.10
2021,04,18,11,19,18.10
2021,04,18,11,20,18.00
2021,04,18,11,21,17.90
2021,04,18,11,22,17.80
2021,04,18,11,23,17.70
2021,04,18,11,24,17.60
2021,04,18,11,25,17.50
2021,04,18,11,26,17.50
2021,04,18,11,27,17.40
2021,04,18,11,28,17.30
2021,04,18,11,29,17.30
2021,04,18,11,30,17.30
2021,04,18,11,31,17.20
2021,04,18,11,32,17.20
2021,04,18,11,33,17.20
2021,04,18,11,34,17.20
2021,04,18,11,35,17.20
2021,04,18,11,36,17.20
2021,04,18,11,37,17.20
2021,04,18,11,38,17.20
2021,04,18,11,39,17.20
2021,04,18,11,40,17.20
2021,04,18,11,41,17.30
2021,04,18,11,42,17.30
2021,04,18,11,43,17.40
2021,04,18,11,44,17.40
2021,04,18,11,45,17.50
2021,04,18,11,46,17.60
2021,04,18,11,47,17.60
2021,04,18,11,48,17.70
2021,04,18,11,49,17.80
2021,04,18,11,50,17.80
2021,04,18,11,51,17.90
2021,04,18,11,52,17.90
2021,04,18,11,53,18.00
2021,04,18,11,54,18.10
2021,04,18,11,55,18.20
2021,04,18,11,56,18.30
2021,04,18,11,57,18.40
2021,04,18,11,58,18.50
2021,04,18,11,59,18.60
2021,04,18,12,00,18.70
2021,04,18,12,01,18.80
2021,04,18,12,02,18.90
2021,04,18,12,03,19.00
2021,04,18,12,04,19.00
2021,04,18,12,05,19.10
2021,04,18,12,06,19.20
2021,04,18,12,07,19.20
2021,04,18,12,08,19.30
2021,04,18,12,09,19.30
2021,04,18,12,10,19.40
2021,04,18,12,11,19.40
2021,04,18,12,12,19.40
2021,04,18,12,13,19.50
2021,04,18,12,14,19.50
2021,04,18,12,15,19.60
2021,04,18,12,16,19.60
2021,04,18,12,17,19.70
2021,04,18,12,18,19.70
2021,04,18,12,19,19.70
2021,04,18,12,20,19.70
2021,04,18,12,21,19.70
2021,04,18,12,22,19.60
2021,04,18,12,23,19.60
2021,04,18,12,24,19.60
2021,04,18,12,25,19.60
2021,04,18,12,26,19.60
2021,04,18,12,27,19.60
2021,04,18,12,28,19.60
2021,04,18,12,29,19.60
2021,04,18,12,30,19.50
2021,04,18,12,31,19.50
2021,04,18,12,32,19.50
2021,04,18,12,33,19.50
2021,04,18,12,34,19.50
2021,04,18,12,35,19.40
2021,04,18,12,36,19.40
2021,04,18,12,37,19.40
2021,04,18,12,38,19.40
2021,04,18,12,39,19.30
2021,04,18,12,40,19.30
2021,04,18,12,41,19.30
2021,04,18,12,42,19.30
2021,04,18,12,43,19.30
2021,04,18,12,44,19.30
2021,04,18,12,45,19.30
2021,04,18,12,46,19.40
2021,04,18,12,47,19.40
2021,04,18,12,48,19.40
2021,04,18,12,49,19.40
2021,04,18,12,50,19.40
2021,04,18,12,51,19.50
2021,04,18,12,52,19.50
2021,04,18,12,53,19.50
2021,04,18,12,54,19.50
2021,04,18,12,55,19.50
2021,04,18,12,56,19.60
2021,04,18,12,57,19.60
2021,04,18,12,58,19.60
2021,04,18,12,59,19.70
2021,04,18,13,00,19.70
2021,04,18,13,01,19.70
2021,04,18,13,02,19.70
2021,04,18,13,03,19.70
2021,04,18,13,04,19.70
2021,04,18,13,05,19.70
2021,04,18,13,06,19.80
2021,04,18,13,07,19.80
2021,04,18,13,08,19.90
2021,04,18,13,09,19.90
2021,04,18,13,10,20.00
2021,04,18,13,11,20.00
2021,04,18,13,12,20.00
2021,04,18,13,13,20.10
2021,04,18,13,14,20.10
2021,04,18,13,15,20.10
2021,04,18,13,16,20.20
2021,04,18,13,17,20.30
2021,04,18,13,18,20.30
2021,04,18,13,19,20.40
2021,04,18,13,20,20.50
2021,04,18,13,21,20.60
2021,04,18,13,22,20.60
2021,04,18,13,23,20.70
2021,04,18,13,24,20.80
2021,04,18,13,25,20.80
2021,04,18,13,26,20.90
2021,04,18,13,27,20.90
2021,04,18,13,28,20.90
2021,04,18,13,29,20.90
2021,04,18,13,30,20.90
2021,04,18,13,31,20.90
2021,04,18,13,32,20.90
2021,04,18,13,33,20.90
2021,04,18,13,34,20.90
2021,04,18,13,35,20.90
2021,04,18,13,36,20.90
2021,04,18,13,37,20.80
2021,04,18,13,38,20.90
2021,04,18,13,39,20.90
2021,04,18,13,40,20.90
2021,04,18,13,41,20.90
2021,04,18,13,42,20.90
2021,04,18,13,43,20.90
2021,04,18,13,44,20.80
2021,04,18,13,45,20.80
2021,04,18,13,46,20.80
2021,04,18,13,47,20.90
2021,04,18,13,48,20.90
2021,04,18,13,49,20.90
2021,04,18,13,50,20.90
2021,04,18,13,51,20.90
2021,04,18,13,52,20.90
2021,04,18,13,53,21.00
2021,04,18,13,54,21.00
2021,04,18,13,55,21.10
2021,04,18,13,56,21.10
2021,04,18,13,57,21.10
2021,04,18,13,58,21.10
2021,04,18,13,59,21.20
2021,04,18,14,00,21.20
2021,04,18,14,01,21.20
2021,04,18,14,02,21.20
2021,04,18,14,03,21.20
2021,04,18,14,04,21.30
2021,04,18,14,05,21.30
2021,04,18,14,06,21.30
2021,04,18,14,07,21.30
2021,04,18,14,08,21.30
2021,04,18,14,09,21.30
2021,04,18,14,10,21.30
2021,04,18,14,11,21.30
2021,04,18,14,12,21.30
2021,04,18,14,13,21.30
2021,04,18,14,14,21.30
2021,04,18,14,15,21.20
2021,04,18,14,16,21.20
2021,04,18,14,17,21.20
2021,04,18,14,18,21.10
2021,04,18,14,19,21.00
2021,04,18,14,20,21.00
2021,04,18,14,21,20.90
2021,04,18,14,22,20.90
2021,04,18,14,23,20.90
2021,04,18,14,24,21.00
2021,04,18,14,25,21.00
2021,04,18,14,26,21.00
2021,04,18,14,27,21.10
2021,04,18,14,28,21.20
2021,04,18,14,29,21.30
2021,04,18,14,30,21.30
2021,04,18,14,31,21.30
2021,04,18,14,32,21.40
2021,04,18,14,33,21.30
2021,04,18,14,34,21.30
2021,04,18,14,35,21.30
2021,04,18,14,36,21.20
2021,04,18,14,37,21.20
2021,04,18,14,38,21.20
2021,04,18,14,39,21.10
2021,04,18,14,40,21.10
2021,04,18,14,41,21.00
2021,04,18,14,42,20.90
2021,04,18,14,43,20.90
2021,04,18,14,44,20.80
2021,04,18,14,45,20.70
2021,04,18,14,46,20.70
2021,04,18,14,47,20.80
2021,04,18,14,48,20.80
2021,04,18,14,49,20.90
2021,04,18,14,50,20.90
2021,04,18,14,51,20.90
2021,04,18,14,52,21.00
2021,04,18,14,53,21.00
2021,04,18,14,54,21.10
2021,04,18,14,55,21.10
2021,04,18,14,56,21.20
2021,04,18,14,57,21.20
2021,04,18,14,58,21.20
2021,04,18,14,59,21.20
2021,04,18,15,00,21.20
2021,04,18,15,01,21.30
2021,04,18,15,02,21.30
2021,04,18,15,03,21.30
2021,04,18,15,04,21.30
2021,04,18,15,05,21.30
2021,04,18,15,06,21.30
2021,04,18,15,07,21.30
2021,04,18,15,08,21.30
2021,04,18,15,09,21.30
2021,04,18,15,10,21.30
2021,04,18,15,11,21.30
2021,04,18,15,12,21.30
2021,04,18,15,13,21.30
2021,04,18,15,14,21.40
2021,04,18,15,15,21.40
2021,04,18,15,16,21.30
2021,04,18,15,17,21.30
2021,04,18,15,18,21.30
2021,04,18,15,19,21.30
2021,04,18,15,20,21.30
2021,04,18,15,21,21.30
2021,04,18,15,22,21.30
2021,04,18,15,23,21.30
2021,04,18,15,24,21.40
2021,04,18,15,25,21.40
2021,04,18,15,26,21.50
2021,04,18,15,27,21.50
2021,04,18,15,28,21.60
2021,04,18,15,29,21.60
2021,04,18,15,30,21.60
2021,04,18,15,31,21.70
2021,04,18,15,32,21.70
2021,04,18,15,33,21.60
2021,04,18,15,34,21.60
2021,04,18,15,35,21.60
2021,04,18,15,36,21.60
2021,04,18,15,37,21.60
2021,04,18,15,38,21.60
2021,04,18,15,39,21.60
2021,04,18,15,40,21.60
2021,04,18,15,41,21.80
2021,04,18,15,42,21.90
2021,04,18,15,43,21.90
2021,04,18,15,44,21.90
2021,04,18,15,45,21.90
2021,04,18,15,46,21.90
2021,04,18,15,47,21.90
2021,04,18,15,48,21.90
2021,04,18,15,49,21.80
2021,04,18,15,50,21.80
2021,04,18,15,51,21.90
2021,04,18,15,52,21.90
2021,04,18,15,53,21.80
2021,04,18,15,54,21.80
2021,04,18,15,55,21.80
2021,04,18,15,56,21.80
2021,04,18,15,57,21.90
2021,04,18,15,58,21.90
2021,04,18,15,59,21.90
2021,04,18,16,00,21.90
2021,04,18,16,01,21.90
2021,04,18,16,02,21.90
2021,04,18,16,03,21.90
2021,04,18,16,04,22.00
2021,04,18,16,05,22.10
2021,04,18,16,06,22.10
2021,04,18,16,07,22.10
2021,04,18,16,08,22.10
2021,04,18,16,09,22.10
2021,04,18,16,10,22.10
2021,04,18,16,11,22.00
2021,04,18,16,12,22.00
2021,04,18,16,13,22.00
2021,04,18,16,14,22.00
2021,04,18,16,15,22.00
2021,04,18,16,16,22.00
2021,04,18,16,17,22.00
2021,04,18,16,18,21.90
2021,04,18,16,19,21.90
2021,04,18,16,20,21.90
2021,04,18,16,21,21.80
2021,04,18,16,22,21.80
2021,04,18,16,23,21.70
2021,04,18,16,24,21.70
2021,04,18,16,25,21.60
2021,04,18,16,26,21.60
2021,04,18,16,27,21.50
2021,04,18,16,28,21.50
2021,04,18,16,29,21.50
2021,04,18,16,30,21.50
2021,04,18,16,31,21.50
2021,04,18,16,32,21.50
2021,04,18,16,33,21.50
2021,04,18,16,34,21.50
2021,04,18,16,35,21.40
2021,04,18,16,36,21.50
2021,04,18,16,37,21.50
2021,04,18,16,38,21.60
2021,04,18,16,39,21.60
2021,04,18,16,40,21.60
2021,04,18,16,41,21.60
2021,04,18,16,42,21.60
2021,04,18,16,43,21.60
2021,04,18,16,44,21.60
2021,04,18,16,45,21.60
2021,04,18,16,46,21.60
2021,04,18,16,47,21.60
2021,04,18,16,48,21.60
2021,04,18,16,49,21.60
2021,04,18,16,50,21.50
2021,04,18,16,51,21.40
2021,04,18,16,52,21.20
2021,04,18,16,53,21.10
2021,04,18,16,54,21.00
2021,04,18,16,55,20.90
2021,04,18,16,56,20.90
2021,04,18,16,57,20.90
2021,04,18,16,58,20.90
2021,04,18,16,59,20.90
2021,04,18,17,00,20.90
2021,04,18,17,01,20.90
2021,04,18,17,02,20.80
2021,04,18,17,03,20.80
2021,04,18,17,04,20.70
2021,04,18,17,05,20.70
2021,04,18,17,06,20.60
2021,04,18,17,07,20.60
2021,04,18,17,08,20.60
2021,04,18,17,09,20.50
2021,04,18,17,10,20.40
2021,04,18,17,11,20.40
2021,04,18,17,12,20.40
2021,04,18,17,13,20.40
2021,04,18,17,14,20.40
2021,04,18,17,15,20.40
2021,04,18,17,16,20.30
2021,04,18,17,17,20.30
2021,04,18,17,18,20.30
2021,04,18,17,19,20.20